Stations météo

Publicité
Nancy/Ochey, France (7181): Température de l'air & dewpoint: 18.01.2021 07:00:00 - 24.01.2021 07:00:00 (CET)Nancy/Ochey, France (7181): Température de l'air 5cm: 18.01.2021 07:00:00 - 24.01.2021 07:00:00 (CET)Nancy/Ochey, France (7181): Température de l'air -20cm: 18.01.2021 07:00:00 - 24.01.2021 07:00:00 (CET)Nancy/Ochey, France (7181): Vitesse du vent & gusts: 18.01.2021 07:00:00 - 24.01.2021 07:00:00 (CET)Nancy/Ochey, France (7181): Direction du vent: 18.01.2021 07:00:00 - 24.01.2021 07:00:00 (CET)Nancy/Ochey, France (7181): reduced air pressure: 18.01.2021 07:00:00 - 24.01.2021 07:00:00 (CET)Nancy/Ochey, France (7181): visibility: 18.01.2021 07:00:00 - 24.01.2021 07:00:00 (CET)Nancy/Ochey, France (7181): Quantités de précipitations: 18.01.2021 07:00:00 - 24.01.2021 07:00:00 (CET)
Date & Time tt [°C] td [°C] tt 5cm [°C] tt -20cm [°C] ff [km/h] ff [knt] fx [km/h] fx [knt] dd ppp [hPa] vv [km] rr [mm]
24.01.2021 07:00:00 0,2 -1,6 -0,5 4,5 16 9 29 16 WSW 1002,6 45 0,0
24.01.2021 06:00:00 0,4 -1,5 -0,2 4,5 18 10 38 21 WSW 1002,1 41 0,0
24.01.2021 05:00:00 0,4 -1,5 -0,3 4,5 18 10 35 19 WSW 1001,6 35 0,0
24.01.2021 04:00:00 0,3 -1,6 -0,4 4,5 19 11 35 19 WSW 1001,0 41 0,0
24.01.2021 03:00:00 0,5 -1,9 -0,4 4,5 23 12 36 19 WSW 1000,1 45 0,0
24.01.2021 02:00:00 0,6 -1,3 0,0 4,6 19 10 36 19 W 999,1 41 0,0
24.01.2021 01:00:00 1,0 -0,6 0,2 4,6 21 12 49 27 W 998,0 40 0,0
24.01.2021 00:00:00 0,9 0,2 0,3 4,6 25 13 45 25 W 997,0 10 0,0
23.01.2021 23:00:00 1,9 1,0 1,4 4,6 23 12 39 21 W 995,3 10 0,4
23.01.2021 22:00:00 2,4 1,7 1,3 4,6 21 11 34 18 W 994,3 9 0,0
23.01.2021 21:00:00 1,9 1,2 0,3 4,6 19 10 32 17 SW 994,0 49 0,0
23.01.2021 20:00:00 2,3 1,3 1,1 4,6 21 11 35 19 SW 993,5 57 0,0
23.01.2021 19:00:00 2,5 1,6 1,8 4,6 24 13 50 27 SW 993,3 60 0,4
23.01.2021 18:00:00 3,4 2,2 2,7 4,6 26 14 42 23 SSW 992,8 24 0,6
23.01.2021 17:00:00 3,3 2,3 2,7 4,6 16 9 33 18 S 992,9 9 0,2
23.01.2021 16:00:00 3,5 2,2 2,9 4,6 17 9 36 19 S 993,3 60 0,0
23.01.2021 15:00:00 2,9 2,2 2,3 4,6 16 8 29 16 SSE 993,8 16 0,4
23.01.2021 14:00:00 2,5 1,6 1,8 4,7 13 7 30 16 SE 994,8 10 1,8
23.01.2021 13:00:00 3,7 1,6 3,3 4,7 14 8 33 18 SSE 996,2 34 0,0
23.01.2021 12:00:00 3,8 1,3 3,4 4,7 21 11 34 18 S 997,5 51 0,0
23.01.2021 11:00:00 3,7 2,1 3,1 4,7 20 11 34 18 S 998,4 17 0,0
23.01.2021 10:00:00 3,3 1,7 2,4 4,7 19 10 33 18 SSW 999,3 57 0,0
23.01.2021 09:00:00 2,9 1,6 2,4 4,8 21 11 31 17 S 1000,2 41 0,0
23.01.2021 08:00:00 3,2 1,9 2,6 4,8 18 10 29 16 S 1000,3 36 0,0
23.01.2021 07:00:00 3,2 2,0 2,6 4,8 20 11 35 19 SSW 1000,5 33 0,0
23.01.2021 06:00:00 3,2 2,2 2,7 4,8 18 10 29 15 SSW 1000,8 29 0,0
23.01.2021 05:00:00 3,1 2,2 2,6 4,8 19 10 28 15 SSW 1001,2 22 0,0
23.01.2021 04:00:00 3,0 2,3 2,3 4,8 14 8 23 12 SSW 1001,6 18 0,0
23.01.2021 03:00:00 2,7 2,0 2,0 4,9 16 8 23 13 SSW 1001,7 19 0,0
23.01.2021 02:00:00 2,8 2,2 1,8 4,9 15 8 23 12 SW 1001,3 10 0,0
23.01.2021 01:00:00 2,5 1,9 1,5 4,9 13 7 21 12 WSW 1001,4 11 0,0
23.01.2021 00:00:00 2,2 1,5 1,3 4,9 10 6 19 10 W 1001,3 25 0,0
22.01.2021 23:00:00 2,1 1,4 1,3 4,9 8 4 16 9 W 1000,7 29 0,0
22.01.2021 22:00:00 2,2 1,8 1,6 4,9 8 5 22 12 WNW 999,9 20 0,0
22.01.2021 21:00:00 2,5 1,9 2,0 4,9 14 7 21 12 NW 999,6 27 0,0
22.01.2021 20:00:00 2,5 2,1 2,2 5,0 9 5 20 11 WNW 999,0 7 0,4
22.01.2021 19:00:00 2,4 2,3 1,8 5,0 13 7 21 11 NW 997,6 5 0,0
22.01.2021 18:00:00 2,0 1,6 1,7 5,0 8 4 11 6 NNW 996,5 48 0,0
22.01.2021 17:00:00 2,0 1,4 1,7 4,9 9 5 14 8 NNE 996,2 20 0,4
22.01.2021 16:00:00 2,1 1,4 2,0 4,9 9 5 17 9 NE 996,4 9 0,8
22.01.2021 15:00:00 2,5 1,9 2,4 4,9 6 4 19 10 ENE 995,8 7 0,6
22.01.2021 14:00:00 2,4 1,7 2,2 4,9 9 5 23 12 NE 995,7 17 0,6
22.01.2021 13:00:00 2,6 1,9 2,6 4,9 13 7 24 13 NNE 996,1 10 0,2
22.01.2021 12:00:00 2,4 2,0 2,8 4,9 16 9 31 17 N 996,3 16 0,6
22.01.2021 11:00:00 2,5 2,1 2,6 4,8 16 8 45 24 NNW 996,1 6 1,6
22.01.2021 10:00:00 3,0 2,3 2,9 4,8 27 15 47 25 NNW 994,6 6 0,8
22.01.2021 09:00:00 8,7 5,1 6,8 4,8 30 16 63 34 SSW 992,2 58 0,2
22.01.2021 08:00:00 8,5 5,1 6,9 4,7 40 22 67 36 SSW 992,0 36 0,0
22.01.2021 07:00:00 8,1 5,7 6,8 4,7 35 19 77 41 SSW 992,0 44 0,2
22.01.2021 06:00:00 8,4 5,7 6,9 4,7 46 25 73 40 SSW 992,2 35 0,0
22.01.2021 05:00:00 8,4 5,7 6,8 4,7 41 22 65 35 SSW 992,8 60 0,2
22.01.2021 04:00:00 8,5 5,8 7,0 4,7 39 21 67 36 SSW 993,2 18 0,2
22.01.2021 03:00:00 8,4 5,9 7,0 4,6 40 21 60 32 SSW 993,6 15 0,2
22.01.2021 02:00:00 8,9 5,5 6,9 4,5 45 25 70 38 SSW 993,7 40 0,0
22.01.2021 01:00:00 8,2 6,3 7,0 4,5 38 21 64 34 SSW 993,7 19 0,4
22.01.2021 00:00:00 9,2 5,7 7,7 4,4 46 25 68 37 SSW 993,9 19 0,0
21.01.2021 23:00:00 9,7 5,9 8,5 4,4 45 24 79 43 SSW 993,9 60 0,0
21.01.2021 22:00:00 9,9 5,9 8,0 4,3 56 30 104 56 SSW 994,0 60 0,0
21.01.2021 21:00:00 9,8 6,5 7,9 4,3 45 24 74 40 SSW 994,7 60 0,0
21.01.2021 20:00:00 9,5 6,9 7,9 4,2 42 23 76 41 SSW 995,2 60 0,4
21.01.2021 19:00:00 9,6 6,7 8,0 4,1 44 24 74 40 SSW 995,7 23 0,0
21.01.2021 18:00:00 9,8 6,3 7,9 4,1 37 20 57 31 SSW 996,3 50 0,0
21.01.2021 17:00:00 9,4 7,0 7,5 4,0 28 15 40 22 SSW 997,4 60 0,2
21.01.2021 16:00:00 8,0 6,9 7,0 4,0 20 11 39 21 SSW 998,7 51 0,4
21.01.2021 15:00:00 8,0 6,6 7,3 3,9 34 19 48 26 SSW 999,5 7 0,0
21.01.2021 14:00:00 8,8 4,8 8,8 3,9 25 14 45 24 SSW 1000,1 56 0,0
21.01.2021 13:00:00 8,5 4,9 6,7 3,8 28 15 44 24 SW 1001,1 56 0,0
21.01.2021 12:00:00 7,1 5,1 5,3 3,8 27 15 39 21 SW 1001,6 59 0,0
21.01.2021 11:00:00 5,3 4,4 4,5 3,7 23 12 50 27 SW 1002,0 16 1,2
21.01.2021 10:00:00 6,1 5,2 5,7 3,7 24 13 62 33 W 1000,9 6 2,2
21.01.2021 09:00:00 8,7 6,3 7,4 3,6 46 25 76 41 SSW 998,9 11 0,2
21.01.2021 08:00:00 9,3 5,5 7,6 3,6 46 25 75 40 SSW 997,9 19 0,2
21.01.2021 07:00:00 9,5 4,9 7,3 3,5 49 26 85 46 SSW 997,8 60 0,0
21.01.2021 06:00:00 9,8 4,4 8,9 3,5 51 28 85 46 SSW 997,7 60 0,0
21.01.2021 05:00:00 10,1 3,8 8,6 3,4 47 26 80 43 SSW 997,6 60 0,0
21.01.2021 04:00:00 10,0 3,5 7,4 3,4 53 28 79 42 SSW 997,6 60 0,0
21.01.2021 03:00:00 10,4 3,0 9,0 3,3 52 28 91 49 SSW 997,8 60 0,0
21.01.2021 02:00:00 10,3 2,4 9,1 3,2 52 28 81 44 SSW 997,4 60 0,0
21.01.2021 01:00:00 10,6 2,4 9,5 3,2 44 24 87 47 SSW 998,4 60 0,0
21.01.2021 00:00:00 10,3 2,4 9,1 3,1 45 24 73 40 SSW 999,1 60 0,0
20.01.2021 23:00:00 10,3 2,4 9,1 3,0 37 20 57 31 S 999,5 60 0,0
20.01.2021 22:00:00 10,1 2,7 8,9 3,0 30 16 63 34 S 1000,2 60 0,0
20.01.2021 21:00:00 10,2 3,0 9,1 3,0 43 23 74 40 S 1000,4 60 0,0
20.01.2021 20:00:00 10,3 3,1 8,9 2,9 51 28 85 46 SSW 1000,9 60 0,0
20.01.2021 19:00:00 10,3 3,1 8,9 2,8 44 24 80 43 SSW 1000,9 60 0,0
20.01.2021 18:00:00 10,1 3,1 8,5 2,8 43 23 69 38 SSW 1001,2 60 0,0
20.01.2021 17:00:00 10,1 3,4 8,9 2,7 38 20 64 35 SSW 1001,6 60 0,0
20.01.2021 16:00:00 11,0 3,8 10,0 2,7 32 17 56 30 SSW 1002,1 51 0,0
20.01.2021 15:00:00 10,7 3,5 10,5 2,7 39 21 65 35 SSW 1002,6 60 0,0
20.01.2021 14:00:00 10,5 4,2 10,0 2,7 33 18 61 33 S 1003,3 53 0,0
20.01.2021 13:00:00 10,5 4,2 10,1 2,7 35 19 61 33 S 1004,2 30 0,0
20.01.2021 12:00:00 9,5 3,9 6,9 2,7 36 19 56 30 SSW 1005,5 35 0,0
20.01.2021 11:00:00 7,8 3,5 5,2 2,7 36 19 64 35 SSW 1006,6 37 0,0
20.01.2021 10:00:00 6,7 2,6 4,2 2,7 41 22 55 30 SSW 1007,3 43 0,0
20.01.2021 09:00:00 5,7 2,0 3,5 2,7 36 19 58 32 SSW 1007,9 23 0,0
20.01.2021 08:00:00 5,3 1,8 3,2 2,7 38 21 54 29 SSW 1008,5 42 0,0
20.01.2021 07:00:00 4,7 0,5 2,9 2,8 34 18 53 28 S 1009,0 46 0,0
20.01.2021 06:00:00 4,3 -0,9 2,7 2,8 33 18 50 27 SSW 1009,8 49 0,0
20.01.2021 05:00:00 4,1 -1,9 2,2 2,8 29 16 42 23 S 1010,4 56 0,0
20.01.2021 04:00:00 3,8 -2,4 1,8 2,8 22 12 34 19 SSW 1010,9 56 0,0
20.01.2021 03:00:00 3,6 -2,6 0,6 2,8 22 12 39 21 S 1011,6 58 0,0
20.01.2021 02:00:00 3,3 -3,1 1,3 2,8 14 7 29 15 S 1012,1 57 0,0
20.01.2021 01:00:00 3,9 -2,7 1,7 2,8 19 11 31 17 S 1012,5 54 0,0
20.01.2021 00:00:00 3,5 -2,5 1,8 2,8 17 9 31 17 S 1013,0 54 0,0
19.01.2021 23:00:00 3,9 -2,1 2,1 2,8 20 11 35 19 S 1013,5 46 0,0
19.01.2021 22:00:00 3,5 -1,7 1,6 2,8 19 10 35 19 SSW 1014,2 34 0,0
19.01.2021 21:00:00 3,0 -2,7 1,3 2,8 22 12 43 23 SSW 1014,7 45 0,0
19.01.2021 20:00:00 3,5 -2,7 1,6 2,8 31 17 45 24 SSW 1014,7 54 0,0
19.01.2021 19:00:00 3,2 -2,8 1,8 2,8 28 15 40 21 S 1015,2 53 0,0
19.01.2021 18:00:00 3,5 -2,7 2,0 2,8 29 16 42 23 S 1015,5 55 0,0
19.01.2021 17:00:00 3,4 -1,8 2,4 2,8 29 16 40 22 SSW 1016,2 39 0,0
19.01.2021 16:00:00 3,6 -1,4 2,6 2,8 32 17 49 26 SSW 1016,5 44 0,0
19.01.2021 15:00:00 3,7 -0,9 2,8 2,8 35 19 53 28 SSW 1016,4 28 0,0
19.01.2021 14:00:00 3,1 -0,5 2,1 2,8 31 17 46 25 SSW 1017,2 32 0,0
19.01.2021 13:00:00 2,5 -0,3 1,8 2,8 23 13 42 23 SSW 1018,2 36 0,0
19.01.2021 12:00:00 2,2 -0,4 0,9 2,8 29 16 53 28 SSW 1018,7 38 0,0
19.01.2021 11:00:00 2,0 -0,8 1,2 2,8 29 16 44 24 SSW 1019,2 14 0,0
19.01.2021 10:00:00 2,4 -1,2 1,5 2,8 32 18 52 28 SW 1019,6 36 0,0
19.01.2021 09:00:00 2,3 -1,1 1,3 2,8 36 19 50 27 SSW 1019,7 30 0,0
19.01.2021 08:00:00 2,0 -1,3 0,9 2,8 21 11 34 19 SSW 1020,5 44 0,0
19.01.2021 07:00:00 1,6 -1,3 0,5 2,8 17 9 31 17 S 1020,9 44 0,0
19.01.2021 06:00:00 1,6 -1,1 0,5 2,8 23 12 35 19 SSW 1021,6 46 0,0
19.01.2021 05:00:00 1,6 -1,0 0,3 2,8 18 10 31 17 SW 1022,4 35 0,0
19.01.2021 04:00:00 0,9 -0,7 -0,6 2,8 16 9 30 16 SSW 1023,4 21 0,0
19.01.2021 03:00:00 1,0 -0,8 -0,8 2,8 21 12 30 16 SSW 1024,1 27 0,0
19.01.2021 02:00:00 1,3 -0,8 -0,5 2,8 20 11 29 16 SSW 1024,4 39 0,0
19.01.2021 01:00:00 1,3 -1,3 -0,4 2,8 21 11 30 16 SSW 1025,2 44 0,0
19.01.2021 00:00:00 1,6 -1,3 0,5 2,8 13 7 23 12 SSW 1025,8 53 0,0
18.01.2021 23:00:00 2,2 -1,1 1,2 2,8 16 9 23 12 SSW 1026,1 48 0,0
18.01.2021 22:00:00 2,0 -0,6 1,2 2,8 14 7 25 13 SW 1026,7 26 0,0
18.01.2021 21:00:00 2,3 -0,1 1,2 2,8 16 9 29 15 SW 1027,0 34 0,0
18.01.2021 20:00:00 2,1 0,0 1,0 2,8 19 10 28 15 SSW 1027,1 32 0,0
18.01.2021 19:00:00 2,0 0,1 1,1 2,8 19 10 25 14 SSW 1027,1 39 0,0
18.01.2021 18:00:00 2,1 0,0 1,3 2,8 18 10 26 14 SSW 1027,0 48 0,0
18.01.2021 17:00:00 2,4 0,1 1,5 2,8 16 9 30 16 SW 1026,8 52 0,0
18.01.2021 16:00:00 3,0 -0,5 2,2 2,8 21 12 29 16 SW 1026,8 44 0,0
18.01.2021 15:00:00 3,3 0,2 2,8 2,8 19 11 28 15 SSW 1027,0 41 0,0
18.01.2021 14:00:00 3,4 -0,4 2,4 2,8 16 9 29 16 SSW 1027,7 34 0,0
18.01.2021 13:00:00 2,5 -0,1 2,4 2,8 20 11 26 14 SW 1028,4 38 0,0
18.01.2021 12:00:00 3,1 -0,7 2,1 2,8 20 11 30 16 SW 1028,5 35 0,0
18.01.2021 11:00:00 2,1 0,2 1,2 2,8 23 12 29 16 SSW 1029,2 35 0,0
18.01.2021 10:00:00 1,5 0,2 0,9 2,8 18 10 24 13 SSW 1029,1 36 0,0
18.01.2021 09:00:00 1,4 0,4 0,6 2,8 16 8 21 11 SSW 1028,8 30 0,0
18.01.2021 08:00:00 1,1 0,4 0,5 2,8 13 7 21 11 SSW 1028,4 20 0,0
18.01.2021 07:00:00 1,0 0,4 0,5 2,8 13 7 22 12 SW 1028,3 19 0,0

tt = Température de l'air
td = dewpoint
tt 5cm = Température de l'air 5cm
tt -20cm = Température de l'air -20cm
ff = Vitesse du vent
fx = gusts
dd = Direction du vent
ppp = reduced air pressure
vv = visibility
rr = Quantités de précipitations

stations d'obs. à proximité